Погода в Джизаке

Погода в Джизаке : погода сейчас, прогноз погоды и архив. Всё, что Вы хотите узнать о погоде в Джизаке!

Хотите узнать прогноз погоды в Джизаке? Тогда Вам сюда: Погода в Джизаке

Поиск расширенной информации на нашем сайте:

Другие новости

Новости СМИ2

Главная страница сайта

Новости сайта

03.07.2017

Напоминаем, что на нашем специализированном сайте Метеоцентр.Азия вы можете получить высокодетализированные автоматические прогнозы погоды по пунктам России, СНГ и мира в авиационном формате (включающие направление и скорость ветра, видимость, явления погоды, количество и форму облачности, нижнюю и верхнюю границу облачности).


Погода в Джизаке - сегодня

Время (UTC), дата Ветер
(°,м/с) 
Видим.   Явления Облачность Т
(°С)
Тd
(°С)
f(%) Тe
(°С)
Pmin
(гПа)
dP
(гПа)
Po
(мм)
O2
(г/м3)
Тmin Tmax R s Состояние
почвы
21 19.05.18 280 (З) н/о    9/0 средняя, верхняя 
[Ac As|Ci fib]
+19.6 +8 47 +20  1013  -0.2  730  273           
00 20.05.18 270 (З) 10 км    10/8 600 м кучево-дожд., средняя 
[Cb cap|Ac As]
+18.5 +8.2 51 +19  1013.1  730  274           
03 20.05.18 320 (СЗ) 20000 м    9/8 600 м кучево-дожд., средняя 
[Cb cap|Ac As]
+20.2 +7.8 45 +20  1014.4  1.4  731  273           
06 20.05.18 320 (СЗ) 20000 м  {ливн. осадки}  8/3 600 м кучево-дожд., средняя, верхняя 
[Cb cap|Ac As|Ci fib]
+25.6 +9.7 37 +27  1013.8  0.2  731  268  +17.1         
09 20.05.18 350 (С) 20000 м    9/3 600 м кучево-дожд., средняя, верхняя 
[Cb cap|Ac As|Ci sp]
+24.2 +9.8 40 +26  1013.8  -0.1  731  269           
12 20.05.18 120 (ЮВ) 20000 м    9/1 600 м кучево-дожд., средняя, верхняя 
[Cb cap|Ac lent|Ci fib]
+26 +10 37 +28  1013.5  -0.2  731  267           
15 20.05.18 тихо ()   10 км    9/0 средняя, верхняя 
[Ac As|Ci fib]
+23.2 +11.2 47 +27  1013.6  -0.1  731  269    +26.9       
18 20.05.18 220 (ЮЗ) н/о    9/0 средняя, верхняя 
[Ac As|Ci fib]
+20.2 +11.1 56 +23  1014.4  0.4  731  272    +26.9  0.0     
21 20.05.18 200 (Ю) н/о    6/0 верхняя 
[Ci fib]
+19.1 +10.2 56 +23  1013.9  -0.7  731  273           
00 21.05.18 220 (ЮЗ) 10 км    6/0 средняя, верхняя 
[Ac As|Ci fib]
+17.8 +9.9 60 +21  1014.2  731  275           
03 21.05.18 260 (З) 20000 м    8/0 средняя, верхняя 
[Ac lent|Ci fib]
+23.1 +12 50 +28  1013.9  0.5  731  269           
06 21.05.18 тихо ()   20000 м    8/3 600 м кучево-дожд., средняя, верхняя 
[Cb cap|Ac As|Ci fib]
+26.7 +12.4 41 +32  1013.6  0.2  731  266  +16.8         
09 21.05.18 тихо ()   20000 м    9/6 600 м кучево-дожд., средняя 
[Cb cap|Ac As]
+27.3 +11.9 38 +32  1013.3  -0.2  731  266           
12 21.05.18 тихо ()   20000 м    9/8 600 м кучево-дожд., средняя 
[Cb cap|Ac As]
+27.7 +12.2 38 +32  1012.9  -0.4  731  265           
15 21.05.18 260 (З) 10 км    9/3 600 м кучево-дожд., средняя, верхняя 
[Cb cap|Ac As|Ci fib]
+22.7 +11 48 +26  1013.8  0.3  731  270    +28.6       
18 21.05.18 220 (ЮЗ) н/о    9/0 верхняя 
[Ci fib]
+20.7 +10.4 52 +23  1014.1  731  272    +28.6       
21 21.05.18 270 (З) н/о    9/0 верхняя 
[Ci fib]
+20.5 +10.4 52 +23  1013.2  -0.9  730  272           
00 22.05.18 220 (ЮЗ) 10 км    10/10 600 м кучево-дожд. 
[Cb cap]
+19.4 +10.3 56 +22  1013.5  0.1  730  273           
03 22.05.18 080 (В) 10 км  в посл. час ливневой дождь  10/10 600 м кучево-дожд. 
[Cb cap]
+19.1 +11.4 61 +24  1015.3  1.8  732  273  +18.9         
06 22.05.18 260 (З) 20000 м  {ливн. осадки}  9/3 600 м кучево-дожд., средняя, верхняя 
[Cb cap|Ac As|Ci fib]
+24.5 +15.4 57 +35  1014.6  0.1  732  267  +18.9    0.3     
09 22.05.18 050 (СВ) 20000 м    9/8 600 м кучево-дожд., верхняя 
[Cb cap|Ci fib]
+27.8 +13.9 42 +35  1013.4  -0.8  731  265           
12 22.05.18 тихо ()   20000 м  в посл. час гроза{ливн. осадки}  9/9 600 м кучево-дожд. 
[Cb cap]
+23.6 +15.5 60 +34  1014.2  0.2  731  268           
15 22.05.18 220 (ЮЗ) 10 км  {ливн. осадки}  9/3 600 м кучево-дожд., средняя, верхняя 
[Cb cap|Ac As|Ci fib]
+22.2 +15.5 66 +32  1014.4  731  269    +27.9       
18 22.05.18 260 (З) н/о    6/0 средняя 
[Ac trans]
+22.2 +13.8 59 +30  1014.4  731  270    +27.9     
21 22.05.18 240 (ЮЗ) н/о    8/0 средняя, верхняя 
[Ac lent|Ci fib]
+22.1 +13.8 59 +29  1013.9  -0.4  731  270           
Время (UTC), дата Ветер
(°,м/с) 
Видим.   Явления Облачность Т
(°С)
Тd
(°С)
f(%) Тe
(°С)
Pmin
(гПа)
dP
(гПа)
Po
(мм)
O2
(г/м3)
Тmin Tmax R s Состояние
почвы

Для получения пояснительной информации подведите курсор к названию столбца.

ПОГОДА в Джизаке - архив

Всё, что Вы хотите узнать о погоде в Джизаке - удобно и подробно!

Выберите нужную дату (начиная с 1 января 2015* года) и нажмите кнопку "Найти".
Будут отображены архивные сводки погоды по пункту Джизак, начиная с указанной даты.


Отображать данные в формате CSV (для использования в таблицах Excel)


Внимание! Наш архив погоды предназначен исключительно для личного некоммерческого использования в познавательных целях. Если Вам необходимы официальные справки о состоянии погоды (для производственных, юридических, коммерческих и т.п. целей), обращайтесь в органы Росгидромета.

*Примечание: данная дата относится к архиву по метеостанциям СССР (Россия, СНГ, Балтия).
Архив по метеостанциям Зарубежной Европы и Азии (кроме Китая) хранится 10 дней, по другим регионам земного шара (Китай, Африка, Америка, Австралия, Океания) - 1 день.

Джизак - район местоположения метеостанции


Название, широта, долгота, высота метеостанции:
Джизак 40.1°ш. 67.8°д. 345 м над ур. моря [Узбекистан]

Дополнительная информация

В oтличие oт бoльшинства пoгoдных сайтoв мы публикуем пoдрoбную метеoинфoрмацию в детальнoм прoфессиoнальнoм фoрмате.

Характеристики температуры и влажнoсти вoздуха измеряются на высoте 2 м в тени вдали oт зданий и деревьев.
Скoрoсть ветра измеряется на высoте 10 м (на урoвне рoста челoвека скoрoсть ветра ниже в 1.5-2 раза). Если метеoстанция нахoдится в гoрoде или в лесу, тo скoрoсть ветра занижена на 2-4 м/с пo сравнению с oткрытым местoм. Скoрoсть ветра над акватoриями крупных рек и oзёр, а также на вершинах хoлмoв на 2-5 м/с выше, чем в oбычных услoвиях.
Атмoсфернoе давление в разных тoчках местнoсти мoжет значительнo oтличаться oт давления на метеoстанции, в зависимoсти oт услoвий рельефа (при пoдъёме на 10 м давление пoнижается примернo на 1 мм рт.ст.).